| time (UTC) | temp F | wind direction | speed MPH | gust MPH | rain 1hr in | rain 24hr in | rain mn in | humidity % | barometer mb |
| 20260504150306 | 70 | 191 | 12.0 | 22.0 | 0.00 | 0.00 | 0.00 | 64 | 1011.1 |
| 20260504141306 | 67 | 186 | 12.0 | 21.0 | 0.00 | 0.00 | 0.00 | 68 | 1011.3 |
| 20260504140306 | 67 | 197 | 10.0 | 23.0 | 0.00 | 0.00 | 0.00 | 69 | 1011.3 |
| 20260504130306 | 65 | 189 | 9.0 | 20.0 | 0.00 | 0.00 | 0.00 | 71 | 1011.4 |
| 20260504120306 | 64 | 192 | 9.0 | 18.0 | 0.00 | 0.00 | 0.00 | 68 | 1011.0 |
| 20260504110306 | 64 | 187 | 10.0 | 18.0 | 0.00 | 0.00 | 0.00 | 68 | 1010.7 |
| 20260504080805 | 66 | 185 | 9.0 | 16.0 | 0.00 | 0.00 | 0.00 | 56 | 1011.7 |
| 20260504080305 | 67 | 181 | 7.0 | 13.0 | 0.00 | 0.00 | 0.00 | 55 | 1011.7 |
| 20260504043805 | 69 | 174 | 5.0 | 7.0 | 0.00 | 0.00 | 0.00 | 51 | 1014.0 |
| 20260504043304 | 70 | 181 | 5.0 | 7.0 | 0.00 | 0.00 | 0.00 | 50 | 1014.0 |
| 20260504042804 | 70 | 185 | 4.0 | 8.0 | 0.00 | 0.00 | 0.00 | 49 | 1014.0 |
| 20260504042305 | 70 | 172 | 4.0 | 8.0 | 0.00 | 0.00 | 0.00 | 49 | 1014.0 |
| 20260504041805 | 70 | 173 | 6.0 | 12.0 | 0.00 | 0.00 | 0.00 | 48 | 1014.0 |
| 20260504040305 | 71 | 170 | 7.0 | 13.0 | 0.00 | 0.00 | 0.00 | 47 | 1014.0 |
| 20260504035805 | 71 | 167 | 7.0 | 14.0 | 0.00 | 0.00 | 0.00 | 47 | 1014.0 |
| 20260504035305 | 71 | 176 | 7.0 | 12.0 | 0.00 | 0.00 | 0.00 | 47 | 1014.0 |
| 20260504034304 | 71 | 184 | 7.0 | 12.0 | 0.00 | 0.00 | 0.00 | 47 | 1014.0 |
| 20260504033804 | 71 | 172 | 7.0 | 12.0 | 0.00 | 0.00 | 0.00 | 47 | 1013.9 |
| 20260504033305 | 71 | 179 | 8.0 | 14.0 | 0.00 | 0.00 | 0.00 | 47 | 1013.9 |
| 20260504032805 | 71 | 187 | 7.0 | 13.0 | 0.00 | 0.00 | 0.00 | 47 | 1013.9 |
| 20260504031304 | 72 | 190 | 6.0 | 10.0 | 0.00 | 0.00 | 0.00 | 47 | 1014.0 |
| 20260504030804 | 72 | 186 | 5.0 | 10.0 | 0.00 | 0.00 | 0.00 | 47 | 1013.8 |
| 20260504025805 | 72 | 204 | 6.0 | 10.0 | 0.00 | 0.00 | 0.00 | 46 | 1013.7 |
| 20260504024804 | 72 | 181 | 6.0 | 9.0 | 0.00 | 0.00 | 0.00 | 45 | 1013.7 |
| 20260504024305 | 73 | 172 | 8.0 | 12.0 | 0.00 | 0.00 | 0.00 | 45 | 1013.8 |
| 20260504023304 | 73 | 193 | 9.0 | 16.0 | 0.00 | 0.00 | 0.00 | 45 | 1013.8 |
| 20260504022804 | 73 | 169 | 7.0 | 13.0 | 0.00 | 0.00 | 0.00 | 45 | 1013.8 |
| 20260504020804 | 74 | 159 | 6.0 | 8.0 | 0.00 | 0.00 | 0.00 | 44 | 1013.8 |
| 20260504020304 | 74 | 186 | 5.0 | 9.0 | 0.00 | 0.00 | 0.00 | 43 | 1013.5 |
| 20260504014309 | 74 | 180 | 5.0 | 10.0 | 0.00 | 0.00 | 0.00 | 41 | 1013.5 |
| 20260504013808 | 75 | 177 | 7.0 | 12.0 | 0.00 | 0.00 | 0.00 | 40 | 1013.5 |
| 20260504013308 | 75 | 158 | 6.0 | 10.0 | 0.00 | 0.00 | 0.00 | 39 | 1013.5 |
| 20260504012309 | 75 | 190 | 7.0 | 13.0 | 0.00 | 0.00 | 0.00 | 38 | 1013.5 |
| 20260504011309 | 76 | 169 | 7.0 | 15.0 | 0.00 | 0.00 | 0.00 | 37 | 1013.2 |
| 20260504010808 | 76 | 187 | 6.0 | 12.0 | 0.00 | 0.00 | 0.00 | 38 | 1013.2 |
| 20260504010308 | 76 | 195 | 6.0 | 13.0 | 0.00 | 0.00 | 0.00 | 37 | 1013.2 |
| 20260504003308 | 78 | 175 | 10.0 | 16.0 | 0.00 | 0.00 | 0.00 | 35 | 1013.5 |
| 20260504001807 | 79 | 198 | 7.0 | 16.0 | 0.00 | 0.00 | 0.00 | 35 | 1013.5 |
| 20260504001308 | 79 | 170 | 3.0 | 13.0 | 0.00 | 0.00 | 0.00 | 35 | 1013.5 |
| 20260504000308 | 79 | 187 | 7.0 | 15.0 | 0.00 | 0.00 | 0.00 | 34 | 1013.5 |
| 20260503235808 | 79 | 172 | 9.0 | 16.0 | 0.00 | 0.00 | 0.00 | 33 | 1013.5 |
| 20260503235308 | 80 | 174 | 9.0 | 16.0 | 0.00 | 0.00 | 0.00 | 33 | 1013.5 |
| 20260503234808 | 80 | 196 | 9.0 | 18.0 | 0.00 | 0.00 | 0.00 | 33 | 1013.6 |
| 20260503233308 | 80 | 198 | 8.0 | 21.0 | 0.00 | 0.00 | 0.00 | 33 | 1013.7 |
| 20260503232308 | 80 | 175 | 12.0 | 20.0 | 0.00 | 0.00 | 0.00 | 32 | 1013.7 |
| 20260503230808 | 81 | 198 | 9.0 | 18.0 | 0.00 | 0.00 | 0.00 | 32 | 1013.8 |
| 20260503225808 | 82 | 193 | 8.0 | 13.0 | 0.00 | 0.00 | 0.00 | 31 | 1013.8 |
| 20260503224808 | 82 | 158 | 10.0 | 17.0 | 0.00 | 0.00 | 0.00 | 31 | 1014.1 |
| 20260503223308 | 83 | 230 | 6.0 | 14.0 | 0.00 | 0.00 | 0.00 | 32 | 1014.1 |
| 20260503222808 | 82 | 192 | 5.0 | 21.0 | 0.00 | 0.00 | 0.00 | 33 | 1014.1 |
| 20260503222307 | 82 | 205 | 6.0 | 20.0 | 0.00 | 0.00 | 0.00 | 33 | 1014.1 |
| 20260503221807 | 82 | 224 | 7.0 | 15.0 | 0.00 | 0.00 | 0.00 | 31 | 1014.3 |
| 20260503221307 | 82 | 212 | 9.0 | 15.0 | 0.00 | 0.00 | 0.00 | 32 | 1014.3 |
| 20260503220308 | 83 | 180 | 8.0 | 17.0 | 0.00 | 0.00 | 0.00 | 31 | 1014.3 |
| 20260503215807 | 83 | 182 | 7.0 | 23.0 | 0.00 | 0.00 | 0.00 | 32 | 1014.3 |
| 20260503213808 | 83 | 181 | 6.0 | 15.0 | 0.00 | 0.00 | 0.00 | 32 | 1014.6 |
| 20260503213307 | 83 | 225 | 6.0 | 12.0 | 0.00 | 0.00 | 0.00 | 32 | 1014.6 |
| 20260503211308 | 83 | 182 | 9.0 | 14.0 | 0.00 | 0.00 | 0.00 | 33 | 1014.7 |
| 20260503210308 | 84 | 183 | 6.0 | 17.0 | 0.00 | 0.00 | 0.00 | 33 | 1015.1 |
| 20260503205307 | 83 | 197 | 7.0 | 16.0 | 0.00 | 0.00 | 0.00 | 33 | 1015.7 |
| 20260503204807 | 83 | 193 | 11.0 | 16.0 | 0.00 | 0.00 | 0.00 | 31 | 1015.7 |
| 20260503203807 | 83 | 171 | 5.0 | 10.0 | 0.00 | 0.00 | 0.00 | 32 | 1015.7 |
| 20260503201807 | 84 | 183 | 7.0 | 13.0 | 0.00 | 0.00 | 0.00 | 31 | 1016.0 |
| 20260503201307 | 84 | 213 | 7.0 | 12.0 | 0.00 | 0.00 | 0.00 | 32 | 1016.0 |
| 20260503200807 | 83 | 195 | 3.0 | 12.0 | 0.00 | 0.00 | 0.00 | 33 | 1016.0 |
| 20260503195307 | 83 | 182 | 6.0 | 15.0 | 0.00 | 0.00 | 0.00 | 32 | 1016.4 |
| 20260503194807 | 83 | 165 | 5.0 | 15.0 | 0.00 | 0.00 | 0.00 | 33 | 1016.4 |
| 20260503192307 | 81 | 196 | 4.0 | 13.0 | 0.00 | 0.00 | 0.00 | 35 | 1016.7 |
| 20260503191808 | 82 | 225 | 8.0 | 15.0 | 0.00 | 0.00 | 0.00 | 34 | 1016.8 |
| 20260503190307 | 83 | 230 | 6.0 | 14.0 | 0.00 | 0.00 | 0.00 | 34 | 1016.8 |
| 20260503185307 | 82 | 206 | 8.0 | 16.0 | 0.00 | 0.00 | 0.00 | 35 | 1017.5 |
| 20260503184808 | 82 | 238 | 6.0 | 16.0 | 0.00 | 0.00 | 0.00 | 36 | 1017.5 |
| 20260503183807 | 82 | 216 | 7.0 | 20.0 | 0.00 | 0.00 | 0.00 | 37 | 1017.5 |
| 20260503183307 | 81 | 204 | 7.0 | 16.0 | 0.00 | 0.00 | 0.00 | 36 | 1017.5 |
| 20260503181307 | 81 | 254 | 6.0 | 12.0 | 0.00 | 0.00 | 0.00 | 38 | 1017.8 |
| 20260503180808 | 82 | 212 | 7.0 | 15.0 | 0.00 | 0.00 | 0.00 | 38 | 1018.0 |
| 20260503180307 | 80 | 199 | 7.0 | 12.0 | 0.00 | 0.00 | 0.00 | 39 | 1018.0 |
| 20260503175807 | 80 | 209 | 7.0 | 14.0 | 0.00 | 0.00 | 0.00 | 40 | 1018.4 |
| 20260503173307 | 80 | 285 | 7.0 | 14.0 | 0.00 | 0.00 | 0.00 | 41 | 1018.8 |
| 20260503172307 | 79 | 225 | 5.0 | 13.0 | 0.00 | 0.00 | 0.00 | 42 | 1018.8 |
| 20260503171307 | 79 | 200 | 6.0 | 15.0 | 0.00 | 0.00 | 0.00 | 42 | 1019.1 |